owner,sensor,date,latitude,longitude,vertical_datum,direction_of_sea_water_velocity,sea_water_speed,upward_sea_water_velocity,qcFlag 
TABS,ioos:station:wmo:42045:1,2014-01-16T08:30:00Z,26.2168,-96.4998,2.0,55.9346591,11.85419757,-99999.0,'11111222,11111222,99999999' 
TABS,ioos:station:wmo:42045:1,2014-01-16T09:00:00Z,26.2168,-96.4998,2.0,70.5374799,9.874218956,-99999.0,'11133222,11111222,99999999' 
TABS,ioos:station:wmo:42045:1,2014-01-16T09:30:00Z,26.2168,-96.4998,2.0,43.4997564,10.53243087,-99999.0,'11111222,11111222,99999999' 
TABS,ioos:station:wmo:42045:1,2014-01-16T10:00:00Z,26.2168,-96.4998,2.0,86.48241062,9.127195626,-99999.0,'11133222,11111222,99999999' 
TABS,ioos:station:wmo:42045:1,2014-01-16T10:30:00Z,26.2168,-96.4998,2.0,68.06542187,9.583762309,-99999.0,'11133222,11111222,99999999' 
TABS,ioos:station:wmo:42045:1,2014-01-16T11:00:00Z,26.2168,-96.4998,2.0,69.90666363,7.102288364,-99999.0,'11133222,11111222,99999999' 
TABS,ioos:station:wmo:42045:1,2014-01-16T11:30:00Z,26.2168,-96.4998,2.0,57.46880434,6.582864118,-99999.0,'11133222,11111222,99999999' 
TABS,ioos:station:wmo:42045:1,2014-01-16T12:00:00Z,26.2168,-96.4998,2.0,87.49230414,6.856566196,-99999.0,'11133222,11111222,99999999' 
TABS,ioos:station:wmo:42045:1,2014-01-16T12:30:00Z,26.2168,-96.4998,2.0,75.57556958,4.295404521,-99999.0,'11133222,11111222,99999999' 
TABS,ioos:station:wmo:42045:1,2014-01-16T13:00:00Z,26.2168,-96.4998,2.0,48.7782941,7.511657607,-99999.0,'11133222,11111222,99999999' 
TABS,ioos:station:wmo:42045:1,2014-01-16T13:30:00Z,26.2168,-96.4998,2.0,56.8920583,6.279530237,-99999.0,'11133222,11111222,99999999' 
TABS,ioos:station:wmo:42045:1,2014-01-16T14:00:00Z,26.2168,-96.4998,2.0,48.82278444,6.257675287,-99999.0,'11133222,11111222,99999999' 
TABS,ioos:station:wmo:42045:1,2014-01-16T14:30:00Z,26.2168,-96.4998,2.0,24.0704939,6.47284327,-99999.0,'11133222,11111222,99999999' 
TABS,ioos:station:wmo:42045:1,2014-01-16T15:00:00Z,26.2168,-96.4998,2.0,352.8752108,7.175409396,-99999.0,'11133222,11111222,99999999' 
TABS,ioos:station:wmo:42045:1,2014-01-16T15:30:00Z,26.2168,-96.4998,2.0,7.082468158,3.32537216,-99999.0,'11133222,11111222,99999999' 
TABS,ioos:station:wmo:42045:1,2014-01-16T16:00:00Z,26.2168,-96.4998,2.0,54.15750897,5.24284274,-99999.0,'11133222,11111222,99999999' 
TABS,ioos:station:wmo:42045:1,2014-01-16T16:30:00Z,26.2168,-96.4998,2.0,21.52697222,8.911621626,-99999.0,'11133222,11111222,99999999' 
TABS,ioos:station:wmo:42045:1,2014-01-16T17:00:00Z,26.2168,-96.4998,2.0,82.46057249,0.685930026,-99999.0,'11133222,11111222,99999999' 
TABS,ioos:station:wmo:42045:1,2014-01-16T17:30:00Z,26.2168,-96.4998,2.0,268.2303919,2.591235227,-99999.0,'11133222,11111222,99999999' 
TABS,ioos:station:wmo:42045:1,2014-01-16T18:00:00Z,26.2168,-96.4998,2.0,347.5666491,12.40084675,-99999.0,'11111222,11111222,99999999' 
TABS,ioos:station:wmo:42045:1,2014-01-16T18:30:00Z,26.2168,-96.4998,2.0,4.787430789,12.1022188,-99999.0,'11111222,11111222,99999999' 
TABS,ioos:station:wmo:42045:1,2014-01-16T19:00:00Z,26.2168,-96.4998,2.0,355.2315409,18.88537265,-99999.0,'11111222,11111222,99999999' 
TABS,ioos:station:wmo:42045:1,2014-01-16T19:30:00Z,26.2168,-96.4998,2.0,2.758217896,18.9119063,-99999.0,'11111222,11111222,99999999' 
TABS,ioos:station:wmo:42045:1,2014-01-16T20:00:00Z,26.2168,-96.4998,2.0,8.384289491,21.0550184,-99999.0,'11111222,11111222,99999999' 
TABS,ioos:station:wmo:42045:1,2014-01-16T20:30:00Z,26.2168,-96.4998,2.0,359.4076957,22.24118927,-99999.0,'11111222,11144222,99999999' 
TABS,ioos:station:wmo:42045:1,2014-01-16T21:00:00Z,26.2168,-96.4998,2.0,49.09558003,32.17774542,-99999.0,'11111222,11111222,99999999' 
TABS,ioos:station:wmo:42045:1,2014-01-16T21:30:00Z,26.2168,-96.4998,2.0,38.46428402,31.55821605,-99999.0,'11111222,11111222,99999999' 
TABS,ioos:station:wmo:42045:1,2014-01-16T22:00:00Z,26.2168,-96.4998,2.0,40.68761217,34.6047858,-99999.0,'11111222,11111222,99999999' 
TABS,ioos:station:wmo:42045:1,2014-01-16T22:30:00Z,26.2168,-96.4998,2.0,34.7878707,35.61551488,-99999.0,'11111222,11111222,99999999' 
TABS,ioos:station:wmo:42045:1,2014-01-16T23:00:00Z,26.2168,-96.4998,2.0,40.36116089,37.5076059,-99999.0,'11111222,11111222,99999999' 
TABS,ioos:station:wmo:42045:1,2014-01-16T23:30:00Z,26.2168,-96.4998,2.0,28.49894424,40.95231007,-99999.0,'11111222,11111222,99999999' 
TABS,ioos:station:wmo:42045:1,2014-01-17T00:00:00Z,26.2168,-96.4998,2.0,24.1432623,37.04001215,-99999.0,'11111222,11111222,99999999' 
TABS,ioos:station:wmo:42045:1,2014-01-17T00:30:00Z,26.2168,-96.4998,2.0,29.15366806,38.81749734,-99999.0,'11111222,11111222,99999999' 
TABS,ioos:station:wmo:42045:1,2014-01-17T01:00:00Z,26.2168,-96.4998,2.0,31.59835697,36.3959462,-99999.0,'11111222,11111222,99999999' 
TABS,ioos:station:wmo:42045:1,2014-01-17T01:30:00Z,26.2168,-96.4998,2.0,24.80417777,34.63516277,-99999.0,'11111222,11111222,99999999' 
TABS,ioos:station:wmo:42045:1,2014-01-17T02:00:00Z,26.2168,-96.4998,2.0,26.88274933,28.24197231,-99999.0,'11111222,11111222,99999999' 
TABS,ioos:station:wmo:42045:1,2014-01-17T02:30:00Z,26.2168,-96.4998,2.0,19.06915773,33.14902412,-99999.0,'11111222,11111222,99999999' 
TABS,ioos:station:wmo:42045:1,2014-01-17T03:00:00Z,26.2168,-96.4998,2.0,27.74062637,39.89537567,-99999.0,'11111222,11111222,99999999' 
TABS,ioos:station:wmo:42045:1,2014-01-17T03:30:00Z,26.2168,-96.4998,2.0,20.56433004,33.02433042,-99999.0,'11111222,11111222,99999999' 
TABS,ioos:station:wmo:42045:1,2014-01-17T04:00:00Z,26.2168,-96.4998,2.0,28.40756517,37.83594059,-99999.0,'11111222,11111222,99999999' 
TABS,ioos:station:wmo:42045:1,2014-01-17T04:30:00Z,26.2168,-96.4998,2.0,22.71422403,35.55774037,-99999.0,'11111222,11111222,99999999' 
TABS,ioos:station:wmo:42045:1,2014-01-17T05:00:00Z,26.2168,-96.4998,2.0,22.47224701,37.28089323,-99999.0,'11111222,11111222,99999999' 
TABS,ioos:station:wmo:42045:1,2014-01-17T05:30:00Z,26.2168,-96.4998,2.0,17.86127281,35.99484963,-99999.0,'11111222,11111222,99999999' 
TABS,ioos:station:wmo:42045:1,2014-01-17T06:00:00Z,26.2168,-96.4998,2.0,12.41587527,35.16232643,-99999.0,'11111222,11111222,99999999' 
TABS,ioos:station:wmo:42045:1,2014-01-17T06:30:00Z,26.2168,-96.4998,2.0,14.53289796,35.54735574,-99999.0,'11111222,11111222,99999999' 
TABS,ioos:station:wmo:42045:1,2014-01-17T07:00:00Z,26.2168,-96.4998,2.0,21.50509555,32.29842256,-99999.0,'11111222,11111222,99999999' 
TABS,ioos:station:wmo:42045:1,2014-01-17T07:30:00Z,26.2168,-96.4998,2.0,22.87529975,33.4941786,-99999.0,'11111222,11111222,99999999' 
TABS,ioos:station:wmo:42045:1,2014-01-17T08:00:00Z,26.2168,-96.4998,2.0,22.14811841,28.8594404,-99999.0,'11111222,11111222,99999999' 
TABS,ioos:station:wmo:42045:1,2014-01-17T08:30:00Z,26.2168,-96.4998,2.0,29.08352393,32.87511673,-99999.0,'11111222,11111222,99999999' 
TABS,ioos:station:wmo:42045:1,2014-01-17T09:00:00Z,26.2168,-96.4998,2.0,30.54878707,30.06277599,-99999.0,'11111222,11111222,99999999' 
TABS,ioos:station:wmo:42045:1,2014-01-17T09:30:00Z,26.2168,-96.4998,2.0,35.59500717,25.61634244,-99999.0,'11111222,11111222,99999999' 
TABS,ioos:station:wmo:42045:1,2014-01-17T10:00:00Z,26.2168,-96.4998,2.0,31.11512993,25.98898613,-99999.0,'11111222,11111222,99999999' 
TABS,ioos:station:wmo:42045:1,2014-01-17T10:30:00Z,26.2168,-96.4998,2.0,26.40257261,25.20953193,-99999.0,'11111222,11111222,99999999' 
TABS,ioos:station:wmo:42045:1,2014-01-17T11:00:00Z,26.2168,-96.4998,2.0,27.65756886,21.11231868,-99999.0,'11111222,11111222,99999999' 
TABS,ioos:station:wmo:42045:1,2014-01-17T11:30:00Z,26.2168,-96.4998,2.0,31.33660965,21.88196746,-99999.0,'11111222,11111222,99999999' 
TABS,ioos:station:wmo:42045:1,2014-01-17T12:00:00Z,26.2168,-96.4998,2.0,34.64031217,11.20648473,-99999.0,'11111222,11111222,99999999' 
TABS,ioos:station:wmo:42045:1,2014-01-17T12:30:00Z,26.2168,-96.4998,2.0,31.07917742,11.08054602,-99999.0,'11111222,11111222,99999999' 
TABS,ioos:station:wmo:42045:1,2014-01-17T13:00:00Z,26.2168,-96.4998,2.0,38.51456969,18.46760678,-99999.0,'11111222,11111222,99999999' 
TABS,ioos:station:wmo:42045:1,2014-01-17T13:30:00Z,26.2168,-96.4998,2.0,73.7521945,14.83240035,-99999.0,'11111222,11111222,99999999' 
TABS,ioos:station:wmo:42045:1,2014-01-17T14:00:00Z,26.2168,-96.4998,2.0,99.70405242,14.41627552,-99999.0,'11111222,11111222,99999999' 
TABS,ioos:station:wmo:42045:1,2014-01-17T14:30:00Z,26.2168,-96.4998,2.0,128.3711681,14.88511001,-99999.0,'11111222,11111222,99999999' 
TABS,ioos:station:wmo:42045:1,2014-01-17T15:00:00Z,26.2168,-96.4998,2.0,127.254762,14.58632922,-99999.0,'11111222,11111222,99999999' 
TABS,ioos:station:wmo:42045:1,2014-01-17T15:30:00Z,26.2168,-96.4998,2.0,145.0988895,14.43652313,-99999.0,'11111222,11111222,99999999' 
TABS,ioos:station:wmo:42045:1,2014-01-17T16:00:00Z,26.2168,-96.4998,2.0,157.0111265,14.69722763,-99999.0,'11111222,11111222,99999999' 
TABS,ioos:station:wmo:42045:1,2014-01-17T16:30:00Z,26.2168,-96.4998,2.0,151.1337872,11.80701486,-99999.0,'11111222,11111222,99999999' 
TABS,ioos:station:wmo:42045:1,2014-01-17T17:00:00Z,26.2168,-96.4998,2.0,162.1729138,16.98554974,-99999.0,'11111222,11111222,99999999' 
TABS,ioos:station:wmo:42045:1,2014-01-17T17:30:00Z,26.2168,-96.4998,2.0,166.0141577,13.73722315,-99999.0,'11111222,11111222,99999999' 
TABS,ioos:station:wmo:42045:1,2014-01-17T18:00:00Z,26.2168,-96.4998,2.0,184.2204243,12.09279538,-99999.0,'11111222,11111222,99999999' 
TABS,ioos:station:wmo:42045:1,2014-01-17T18:30:00Z,26.2168,-96.4998,2.0,182.9090327,12.21574394,-99999.0,'11111222,11111222,99999999' 
TABS,ioos:station:wmo:42045:1,2014-01-17T19:00:00Z,26.2168,-96.4998,2.0,199.7951002,12.25411768,-99999.0,'11111222,11111222,99999999' 
TABS,ioos:station:wmo:42045:1,2014-01-17T19:30:00Z,26.2168,-96.4998,2.0,205.8674145,11.75811635,-99999.0,'11111222,11111222,99999999' 
TABS,ioos:station:wmo:42045:1,2014-01-17T20:00:00Z,26.2168,-96.4998,2.0,196.5774808,15.80704273,-99999.0,'11111222,11111222,99999999' 
TABS,ioos:station:wmo:42045:1,2014-01-17T20:30:00Z,26.2168,-96.4998,2.0,208.8495868,14.13424211,-99999.0,'11111222,11111222,99999999' 
TABS,ioos:station:wmo:42045:1,2014-01-17T21:00:00Z,26.2168,-96.4998,2.0,227.9737756,14.30990217,-99999.0,'11111222,11111222,99999999' 
TABS,ioos:station:wmo:42045:1,2014-01-17T21:30:00Z,26.2168,-96.4998,2.0,231.0232011,8.759920091,-99999.0,'11133222,11111222,99999999' 
TABS,ioos:station:wmo:42045:1,2014-01-17T22:00:00Z,26.2168,-96.4998,2.0,227.1339381,13.67078637,-99999.0,'11111222,11111222,99999999' 
TABS,ioos:station:wmo:42045:1,2014-01-17T22:30:00Z,26.2168,-96.4998,2.0,248.2666508,10.88361153,-99999.0,'11111222,11111222,99999999' 
TABS,ioos:station:wmo:42045:1,2014-01-17T23:00:00Z,26.2168,-96.4998,2.0,256.0300171,12.509996,-99999.0,'11111222,11111222,99999999' 
TABS,ioos:station:wmo:42045:1,2014-01-17T23:30:00Z,26.2168,-96.4998,2.0,215.8786796,9.36740092,-99999.0,'11133222,11111222,99999999' 
TABS,ioos:station:wmo:42045:1,2014-01-18T00:00:00Z,26.2168,-96.4998,2.0,203.5651303,11.28076682,-99999.0,'11111222,11111222,99999999' 
TABS,ioos:station:wmo:42045:1,2014-01-18T00:30:00Z,26.2168,-96.4998,2.0,256.5552955,11.2688065,-99999.0,'11111222,11111222,99999999' 
TABS,ioos:station:wmo:42045:1,2014-01-18T01:00:00Z,26.2168,-96.4998,2.0,264.6721409,11.30885052,-99999.0,'11111222,11111222,99999999' 
TABS,ioos:station:wmo:42045:1,2014-01-18T01:30:00Z,26.2168,-96.4998,2.0,257.8901226,8.151380251,-99999.0,'11133222,11111222,99999999' 
TABS,ioos:station:wmo:42045:1,2014-01-18T02:00:00Z,26.2168,-96.4998,2.0,258.5725042,9.590099061,-99999.0,'11133222,11111222,99999999' 
TABS,ioos:station:wmo:42045:1,2014-01-18T02:30:00Z,26.2168,-96.4998,2.0,259.9060813,7.760103092,-99999.0,'11133222,11111222,99999999' 
TABS,ioos:station:wmo:42045:1,2014-01-18T03:00:00Z,26.2168,-96.4998,2.0,253.906462,9.054838486,-99999.0,'11133222,11111222,99999999' 
TABS,ioos:station:wmo:42045:1,2014-01-18T03:30:00Z,26.2168,-96.4998,2.0,283.9069303,12.85684643,-99999.0,'11111222,11111222,99999999' 
TABS,ioos:station:wmo:42045:1,2014-01-18T04:00:00Z,26.2168,-96.4998,2.0,286.8483862,9.591704749,-99999.0,'11133222,11111222,99999999' 
TABS,ioos:station:wmo:42045:1,2014-01-18T04:30:00Z,26.2168,-96.4998,2.0,302.0861301,6.043053864,-99999.0,'11133222,11111222,99999999' 
TABS,ioos:station:wmo:42045:1,2014-01-18T05:00:00Z,26.2168,-96.4998,2.0,315.4098292,10.88265133,-99999.0,'11111222,11111222,99999999' 
TABS,ioos:station:wmo:42045:1,2014-01-18T05:30:00Z,26.2168,-96.4998,2.0,323.5200161,10.88225161,-99999.0,'11111222,11111222,99999999' 
TABS,ioos:station:wmo:42045:1,2014-01-18T06:00:00Z,26.2168,-96.4998,2.0,347.064965,10.85547327,-99999.0,'11111222,11111222,99999999' 
TABS,ioos:station:wmo:42045:1,2014-01-18T06:30:00Z,26.2168,-96.4998,2.0,342.7833414,9.223285749,-99999.0,'11133222,11111222,99999999' 
TABS,ioos:station:wmo:42045:1,2014-01-18T07:00:00Z,26.2168,-96.4998,2.0,357.4199636,13.99418808,-99999.0,'11111222,11111222,99999999' 
TABS,ioos:station:wmo:42045:1,2014-01-18T07:30:00Z,26.2168,-96.4998,2.0,359.9450124,10.38000482,-99999.0,'11111222,11144222,99999999' 
TABS,ioos:station:wmo:42045:1,2014-01-18T08:00:00Z,26.2168,-96.4998,2.0,1.12123724,14.82283711,-99999.0,'11111222,11111222,99999999' 
TABS,ioos:station:wmo:42045:1,2014-01-18T08:30:00Z,26.2168,-96.4998,2.0,19.04843737,15.65733374,-99999.0,'11111222,11111222,99999999' 
TABS,ioos:station:wmo:42045:1,2014-01-18T09:00:00Z,26.2168,-96.4998,2.0,19.18656605,15.91394986,-99999.0,'11111222,11111222,99999999' 
TABS,ioos:station:wmo:42045:1,2014-01-18T09:30:00Z,26.2168,-96.4998,2.0,36.29466212,15.13676319,-99999.0,'11111222,11111222,99999999' 
TABS,ioos:station:wmo:42045:1,2014-01-18T10:00:00Z,26.2168,-96.4998,2.0,37.15512141,11.6561443,-99999.0,'11111222,11111222,99999999' 
TABS,ioos:station:wmo:42045:1,2014-01-18T10:30:00Z,26.2168,-96.4998,2.0,36.38249093,12.22244247,-99999.0,'11111222,11111222,99999999' 
TABS,ioos:station:wmo:42045:1,2014-01-18T11:00:00Z,26.2168,-96.4998,2.0,11.3527895,15.79912023,-99999.0,'11111222,11111222,99999999' 
TABS,ioos:station:wmo:42045:1,2014-01-18T11:30:00Z,26.2168,-96.4998,2.0,38.03009789,12.64459173,-99999.0,'11111222,11111222,99999999' 
TABS,ioos:station:wmo:42045:1,2014-01-18T12:00:00Z,26.2168,-96.4998,2.0,51.06016276,16.61083983,-99999.0,'11111222,11111222,99999999' 
TABS,ioos:station:wmo:42045:1,2014-01-18T12:30:00Z,26.2168,-96.4998,2.0,58.85480968,12.99279801,-99999.0,'11111222,11111222,99999999' 
TABS,ioos:station:wmo:42045:1,2014-01-18T13:00:00Z,26.2168,-96.4998,2.0,55.08491261,14.65852994,-99999.0,'11111222,11111222,99999999' 
TABS,ioos:station:wmo:42045:1,2014-01-18T13:30:00Z,26.2168,-96.4998,2.0,49.53252728,14.40639094,-99999.0,'11111222,11111222,99999999' 
TABS,ioos:station:wmo:42045:1,2014-01-18T14:00:00Z,26.2168,-96.4998,2.0,56.48165095,14.81333521,-99999.0,'11111222,11111222,99999999' 
TABS,ioos:station:wmo:42045:1,2014-01-18T14:30:00Z,26.2168,-96.4998,2.0,69.71748834,12.26019984,-99999.0,'11111222,11111222,99999999' 
TABS,ioos:station:wmo:42045:1,2014-01-18T15:00:00Z,26.2168,-96.4998,2.0,66.58748714,11.95422101,-99999.0,'11111222,11111222,99999999' 
TABS,ioos:station:wmo:42045:1,2014-01-18T15:30:00Z,26.2168,-96.4998,2.0,50.14042311,14.91630316,-99999.0,'11111222,11111222,99999999' 
TABS,ioos:station:wmo:42045:1,2014-01-18T16:00:00Z,26.2168,-96.4998,2.0,46.15117661,13.72771285,-99999.0,'11111222,11111222,99999999' 
TABS,ioos:station:wmo:42045:1,2014-01-18T16:30:00Z,26.2168,-96.4998,2.0,50.83782241,13.00040384,-99999.0,'11111222,11111222,99999999' 
TABS,ioos:station:wmo:42045:1,2014-01-18T17:00:00Z,26.2168,-96.4998,2.0,31.70273776,12.23572638,-99999.0,'11111222,11111222,99999999' 
TABS,ioos:station:wmo:42045:1,2014-01-18T17:30:00Z,26.2168,-96.4998,2.0,40.36465264,15.22430951,-99999.0,'11111222,11111222,99999999' 
TABS,ioos:station:wmo:42045:1,2014-01-18T18:00:00Z,26.2168,-96.4998,2.0,38.44916728,16.98244976,-99999.0,'11111222,11111222,99999999' 
TABS,ioos:station:wmo:42045:1,2014-01-18T18:30:00Z,26.2168,-96.4998,2.0,44.49006845,19.06435417,-99999.0,'11111222,11111222,99999999' 
TABS,ioos:station:wmo:42045:1,2014-01-18T19:00:00Z,26.2168,-96.4998,2.0,41.03380576,14.51631496,-99999.0,'11111222,11111222,99999999' 
TABS,ioos:station:wmo:42045:1,2014-01-18T19:30:00Z,26.2168,-96.4998,2.0,50.04643019,18.32854059,-99999.0,'11111222,11111222,99999999' 
TABS,ioos:station:wmo:42045:1,2014-01-18T20:00:00Z,26.2168,-96.4998,2.0,57.48941668,21.15520031,-99999.0,'11111222,11111222,99999999' 
TABS,ioos:station:wmo:42045:1,2014-01-18T20:30:00Z,26.2168,-96.4998,2.0,61.17204842,21.85895926,-99999.0,'11111222,11111222,99999999' 
TABS,ioos:station:wmo:42045:1,2014-01-18T21:00:00Z,26.2168,-96.4998,2.0,46.3963241,20.60413793,-99999.0,'11111222,11111222,99999999' 
TABS,ioos:station:wmo:42045:1,2014-01-18T21:30:00Z,26.2168,-96.4998,2.0,57.77783894,21.00506844,-99999.0,'11111222,11111222,99999999' 
TABS,ioos:station:wmo:42045:1,2014-01-18T22:00:00Z,26.2168,-96.4998,2.0,68.50424007,22.97826799,-99999.0,'11111222,11111222,99999999' 
TABS,ioos:station:wmo:42045:1,2014-01-18T22:30:00Z,26.2168,-96.4998,2.0,66.58903382,24.79082492,-99999.0,'11111222,11111222,99999999' 
TABS,ioos:station:wmo:42045:1,2014-01-18T23:00:00Z,26.2168,-96.4998,2.0,73.15159433,21.70154372,-99999.0,'11111222,11111222,99999999' 
TABS,ioos:station:wmo:42045:1,2014-01-18T23:30:00Z,26.2168,-96.4998,2.0,75.29800937,23.16856707,-99999.0,'11111222,11111222,99999999' 
TABS,ioos:station:wmo:42045:1,2014-01-19T00:00:00Z,26.2168,-96.4998,2.0,62.35408928,24.41773536,-99999.0,'11111222,11111222,99999999' 
TABS,ioos:station:wmo:42045:1,2014-01-19T00:30:00Z,26.2168,-96.4998,2.0,64.89242713,22.50659681,-99999.0,'11111222,11111222,99999999' 
TABS,ioos:station:wmo:42045:1,2014-01-19T01:00:00Z,26.2168,-96.4998,2.0,63.22004264,20.26339063,-99999.0,'11111222,11111222,99999999' 
TABS,ioos:station:wmo:42045:1,2014-01-19T01:30:00Z,26.2168,-96.4998,2.0,66.00477449,24.83638661,-99999.0,'11111222,11111222,99999999' 
TABS,ioos:station:wmo:42045:1,2014-01-19T02:00:00Z,26.2168,-96.4998,2.0,77.46517328,30.82473358,-99999.0,'11111222,11111222,99999999' 
TABS,ioos:station:wmo:42045:1,2014-01-19T02:30:00Z,26.2168,-96.4998,2.0,73.16134439,35.41860528,-99999.0,'11111222,11111222,99999999' 
TABS,ioos:station:wmo:42045:1,2014-01-19T03:00:00Z,26.2168,-96.4998,2.0,73.28309787,31.01058529,-99999.0,'11111222,11111222,99999999' 
TABS,ioos:station:wmo:42045:1,2014-01-19T03:30:00Z,26.2168,-96.4998,2.0,70.40533526,33.90339953,-99999.0,'11111222,11111222,99999999' 
TABS,ioos:station:wmo:42045:1,2014-01-19T04:00:00Z,26.2168,-96.4998,2.0,73.2420083,33.60726856,-99999.0,'11111222,11111222,99999999' 
TABS,ioos:station:wmo:42045:1,2014-01-19T04:30:00Z,26.2168,-96.4998,2.0,71.76788484,38.41875193,-99999.0,'11111222,11111222,99999999' 
TABS,ioos:station:wmo:42045:1,2014-01-19T05:00:00Z,26.2168,-96.4998,2.0,67.106628,36.73349561,-99999.0,'11111222,11111222,99999999' 
TABS,ioos:station:wmo:42045:1,2014-01-19T05:30:00Z,26.2168,-96.4998,2.0,65.12350925,29.59603014,-99999.0,'11111222,11111222,99999999' 
TABS,ioos:station:wmo:42045:1,2014-01-19T06:00:00Z,26.2168,-96.4998,2.0,68.09058924,30.52465397,-99999.0,'11111222,11111222,99999999' 
TABS,ioos:station:wmo:42045:1,2014-01-19T06:30:00Z,26.2168,-96.4998,2.0,57.90960691,27.12431566,-99999.0,'11111222,11111222,99999999' 
TABS,ioos:station:wmo:42045:1,2014-01-19T07:00:00Z,26.2168,-96.4998,2.0,51.85056246,25.07625371,-99999.0,'11111222,11111222,99999999' 
TABS,ioos:station:wmo:42045:1,2014-01-19T07:30:00Z,26.2168,-96.4998,2.0,36.77655436,24.52003263,-99999.0,'11111222,11111222,99999999' 
TABS,ioos:station:wmo:42045:1,2014-01-19T08:00:00Z,26.2168,-96.4998,2.0,44.48160675,25.00431963,-99999.0,'11111222,11111222,99999999' 
TABS,ioos:station:wmo:42045:1,2014-01-19T08:30:00Z,26.2168,-96.4998,2.0,41.6396897,23.6438787,-99999.0,'11111222,11111222,99999999' 
TABS,ioos:station:wmo:42045:1,2014-01-19T09:00:00Z,26.2168,-96.4998,2.0,32.15243041,23.1504298,-99999.0,'11111222,11111222,99999999' 
TABS,ioos:station:wmo:42045:1,2014-01-19T09:30:00Z,26.2168,-96.4998,2.0,28.75873399,25.00414566,-99999.0,'11111222,11111222,99999999' 
TABS,ioos:station:wmo:42045:1,2014-01-19T10:00:00Z,26.2168,-96.4998,2.0,34.39883852,31.17098811,-99999.0,'11111222,11111222,99999999' 
TABS,ioos:station:wmo:42045:1,2014-01-19T10:30:00Z,26.2168,-96.4998,2.0,37.20749234,30.5605301,-99999.0,'11111222,11111222,99999999' 
TABS,ioos:station:wmo:42045:1,2014-01-19T11:00:00Z,26.2168,-96.4998,2.0,40.65898085,29.14570637,-99999.0,'11111222,11111222,99999999' 
TABS,ioos:station:wmo:42045:1,2014-01-19T11:30:00Z,26.2168,-96.4998,2.0,40.90017364,32.24172762,-99999.0,'11111222,11111222,99999999' 
TABS,ioos:station:wmo:42045:1,2014-01-19T12:00:00Z,26.2168,-96.4998,2.0,43.46838062,35.97630609,-99999.0,'11111222,11111222,99999999' 
TABS,ioos:station:wmo:42045:1,2014-01-19T12:30:00Z,26.2168,-96.4998,2.0,43.22987612,27.01022769,-99999.0,'11111222,11111222,99999999' 
TABS,ioos:station:wmo:42045:1,2014-01-19T13:00:00Z,26.2168,-96.4998,2.0,40.87770387,32.16465296,-99999.0,'11111222,11111222,99999999' 
TABS,ioos:station:wmo:42045:1,2014-01-19T13:30:00Z,26.2168,-96.4998,2.0,36.15079512,33.14061104,-99999.0,'11111222,11111222,99999999' 
TABS,ioos:station:wmo:42045:1,2014-01-19T14:00:00Z,26.2168,-96.4998,2.0,35.84705538,33.38332069,-99999.0,'11111222,11111222,99999999' 
TABS,ioos:station:wmo:42045:1,2014-01-19T14:30:00Z,26.2168,-96.4998,2.0,39.422699,33.90364287,-99999.0,'11111222,11111222,99999999' 
TABS,ioos:station:wmo:42045:1,2014-01-19T15:00:00Z,26.2168,-96.4998,2.0,33.7294596,32.38063156,-99999.0,'11111222,11111222,99999999' 
TABS,ioos:station:wmo:42045:1,2014-01-19T15:30:00Z,26.2168,-96.4998,2.0,34.52347722,31.84870641,-99999.0,'11111222,11111222,99999999' 
TABS,ioos:station:wmo:42045:1,2014-01-19T16:00:00Z,26.2168,-96.4998,2.0,31.81581166,31.37398923,-99999.0,'11111222,11111222,99999999' 
TABS,ioos:station:wmo:42045:1,2014-01-19T16:30:00Z,26.2168,-96.4998,2.0,38.97383048,28.22102231,-99999.0,'11111222,11111222,99999999' 
TABS,ioos:station:wmo:42045:1,2014-01-19T17:00:00Z,26.2168,-96.4998,2.0,38.82535444,30.83195258,-99999.0,'11111222,11111222,99999999' 
TABS,ioos:station:wmo:42045:1,2014-01-19T17:30:00Z,26.2168,-96.4998,2.0,39.43749785,26.69880147,-99999.0,'11111222,11111222,99999999' 
TABS,ioos:station:wmo:42045:1,2014-01-19T18:00:00Z,26.2168,-96.4998,2.0,33.45830299,28.09579506,-99999.0,'11111222,11111222,99999999' 
TABS,ioos:station:wmo:42045:1,2014-01-19T18:30:00Z,26.2168,-96.4998,2.0,25.196138,41.55353294,-99999.0,'11111222,11111222,99999999' 
TABS,ioos:station:wmo:42045:1,2014-01-19T19:00:00Z,26.2168,-96.4998,2.0,25.78139546,44.78816027,-99999.0,'11111222,11111222,99999999' 
TABS,ioos:station:wmo:42045:1,2014-01-19T19:30:00Z,26.2168,-96.4998,2.0,24.44718557,46.22427176,-99999.0,'11111222,11111222,99999999' 
TABS,ioos:station:wmo:42045:1,2014-01-19T20:00:00Z,26.2168,-96.4998,2.0,21.16550969,42.15358229,-99999.0,'11111222,11111222,99999999' 
TABS,ioos:station:wmo:42045:1,2014-01-19T20:30:00Z,26.2168,-96.4998,2.0,24.99220096,40.40308528,-99999.0,'11111222,11111222,99999999' 
TABS,ioos:station:wmo:42045:1,2014-01-19T21:00:00Z,26.2168,-96.4998,2.0,17.71801151,40.67956367,-99999.0,'11111222,11111222,99999999' 
TABS,ioos:station:wmo:42045:1,2014-01-19T21:30:00Z,26.2168,-96.4998,2.0,16.32673341,37.99202548,-99999.0,'11111222,11111222,99999999' 
TABS,ioos:station:wmo:42045:1,2014-01-19T22:00:00Z,26.2168,-96.4998,2.0,12.80444658,37.90252762,-99999.0,'11111222,11111222,99999999' 
TABS,ioos:station:wmo:42045:1,2014-01-19T22:30:00Z,26.2168,-96.4998,2.0,16.24244644,35.78840175,-99999.0,'11111222,11111222,99999999' 
TABS,ioos:station:wmo:42045:1,2014-01-19T23:00:00Z,26.2168,-96.4998,2.0,23.44761964,31.74100345,-99999.0,'11111222,11111222,99999999' 
TABS,ioos:station:wmo:42045:1,2014-01-19T23:30:00Z,26.2168,-96.4998,2.0,18.74469063,30.43420444,-99999.0,'11111222,11111222,99999999' 
TABS,ioos:station:wmo:42045:1,2014-01-20T00:00:00Z,26.2168,-96.4998,2.0,8.560266738,29.96378648,-99999.0,'11111222,11111222,99999999' 
TABS,ioos:station:wmo:42045:1,2014-01-20T00:30:00Z,26.2168,-96.4998,2.0,7.186686137,30.05611419,-99999.0,'11111222,11111222,99999999' 